{"data":{"norad_id":65209,"epoch":"2026-05-25T00:14:07.373184Z","epoch_age_seconds":64433,"freshness":"FRESH","line1":"1 65209U 25176M   26145.00980756  .00018637  00000+0  56128-3 0  9995","line2":"2 65209  53.1574 157.6445 0001384  86.8702 273.2459 15.34404635 44812","mean_motion":15.34404635,"eccentricity":0.0001384,"inclination_deg":53.1574,"raan_deg":157.6445,"arg_perigee_deg":86.8702,"mean_anomaly_deg":273.2459,"bstar":0.00056128,"rev_number":4481,"period_min":93.847474593949,"perigee_km":461.74269366238,"apogee_km":463.63623442762,"semimajor_km":6840.826464045,"source":"CELESTRAK","updated_at":"2026-05-25T13:38:20.719914Z"}}